Simultaneous Nadir Overpasses (SNOs) Predictions

Prediction of SNOs between GOES-15 and NPP Satellite Orbit:

Table of predicted SNOs for the next 14.0 days since TLE Epoch: 11/8/2013
Index Date Time (GOES-15) GOES-15 Lat,Lon NPP Lat,Lon Distance(km) Time Diff (sec)
1 11/09/2013 10:38:16 0.05,-135.25 0.72,-138.21 337.12 80
2 11/10/2013 10:22:11 0.07,-135.28 -0.30,-133.67 182.69 80
3 11/11/2013 22:41:28 -0.03,-135.26 -0.89,-138.97 423.56 80
4 11/12/2013 22:25:23 -0.05,-135.28 0.13,-134.44 96.09 80
5 11/14/2013 10:44:31 0.02,-135.37 1.02,-139.71 495.27 80
6 11/15/2013 10:28:27 0.04,-135.39 -0.00,-135.17 24.21 80
7 11/17/2013 22:28:59 -0.03,-135.38 -0.14,-135.94 63.45 80
8 11/18/2013 22:12:53 -0.04,-135.40 0.83,-131.40 455.47 80
9 11/20/2013 10:32:03
